Home > Weather > Amman > Past weeks

Flag for Jordan Past Weather in Amman, Jordan — Yesterday and Last 2 Weeks

Now
66 °F

Haze.


Feels Like: 66 °F
Forecast: 64 / 84 °F
Wind: 5 mph from Northwest

Location: Amman Airport

Current Time: May 26, 2016 at 12:01:51 AM

Latest Report: May 25, 2016 at 11:00 PM


Visibility: 4 mi

Pressure: 29.98 "Hg (27.25 "Hg at 816m altitude)

Humidity: 52%

Dew Point: 48 °F

Location of AmmanLocation

Past Weather in Amman — Graph

°F

Amman Temperature Yesterday

Maximum temperature yesterday: 77 °F (at 3:00 PM)
Minimum temperature yesterday: 55 °F (at 4:00 AM)
Average temperature yesterday: 66 °F

High & Low Weather Summary for the Past Weeks

 TemperatureHumidityPressure
High100 °F (May 16, 2:00 PM)100% (May 24, 3:00 AM)30.15 "Hg (May 24, 3:00 AM)
Low54 °F (May 20, 5:00 AM)7% (May 21, 1:00 PM)29.89 "Hg (May 10, 10:00 PM)
Average73 °F41%29.99 "Hg
* Reported May 10 10:00 PM — May 25 10:00 PM, Amman, Weather by CustomWeather, © 2016

Note: Actual official high and low records may vary slightly from our data, if they occured in-between our weather recording intervals... More about our weather records

Advertising

Amman Weather History for the Previous 24 Hours

Scroll right to see more
 ConditionsComfort  
Time TempWeatherWind HumidityBarometerVisibility
10:00 PM
Wed, May 25
66 °FHaze.5 mph56%29.98 "Hg4 mi
9:00 PM68 °FHaze.9 mph56%29.98 "Hg4 mi
8:00 PM73 °FHaze.12 mph53%29.98 "Hg3 mi
7:00 PM73 °FHaze.12 mph53%29.98 "Hg3 mi
6:00 PM75 °FHaze.16 mph50%29.98 "Hg3 mi
5:00 PM75 °FHaze.9 mph44%30.01 "Hg3 mi
4:00 PM77 °FHaze.9 mph42%30.01 "Hg3 mi
3:00 PM77 °FHaze.9 mph44%30.01 "Hg3 mi
2:00 PM73 °FHaze.12 mph41%30.01 "Hg3 mi
1:00 PM73 °FHaze.14 mph36%29.98 "Hg3 mi
12:00 PM73 °FHaze.12 mph38%30.01 "Hg3 mi
11:00 AM66 °FHaze.7 mph56%30.01 "Hg3 mi
10:00 AM66 °FHaze.7 mph56%30.01 "Hg3 mi
9:00 AM63 °FScattered clouds.7 mph68%30.01 "Hg3 mi
8:00 AM59 °FFog.13 mph82%30.01 "Hg2 mi
7:00 AM57 °FFog.7 mph88%30.01 "Hg2 mi
6:00 AM57 °FFog.6 mph88%30.01 "Hg2 mi
5:00 AM55 °FFog.8 mph88%30.01 "Hg3 mi
4:00 AM55 °FFog.9 mph88%30.01 "Hg3 mi
3:00 AM57 °FFog.6 mph82%30.01 "Hg3 mi
2:00 AM57 °FFog.5 mph88%30.01 "Hg3 mi
1:00 AM57 °FFog.6 mph88%30.01 "Hg3 mi
12:00 AM59 °FFog.7 mph82%30.01 "Hg3 mi
Weather by CustomWeather, © 2016

See weather overviewHow to use our weather pages